Hourly Weather Roundup
Issued by NWS Central Illinois

Home | Current Version | Previous Version | Text Only | Print | Product List | Glossary On
Versions: 1 2 3 4 5 6 7 8 9 10 11 12 13 14 15 16 17 18 19 20 21 22 23 24 25 26 27 28 29 30 31 32 33 34 35 36 37 38 39 40 41 42 43 44 45 46 47 48 49 50
000
NZUS43 KILX 271210
HWRILX

Area Weather Roundup
National Weather Service Lincoln IL
700 AM CDT TUE JUN 27 2017

NOTE:  "FAIR" indicates few or no clouds below 12,000 feet, with
       no sigificant weather and/or obstructions to visibility.


CITY           SKY/WX    TMP DP  RH WIND       PRES   REMARKS
Bloomington    MOSUNNY   54  51  90 CALM      30.17R
6HR MIN TEMP:  49; 6HR MAX TEMP:  55;

Champaign      SUNNY     55  51  86 CALM      30.16R
6HR MIN TEMP:  47; 6HR MAX TEMP:  55;

Danville       SUNNY     55  51  86 CALM      30.14R
6HR MIN TEMP:  47; 6HR MAX TEMP:  55;

Decatur        SUNNY     56  52  86 CALM      30.16R
6HR MIN TEMP:  50; 6HR MAX TEMP:  59;

Effingham      SUNNY     56  55  96 CALM      30.18R
6HR MIN TEMP:  51; 6HR MAX TEMP:  56;

Flora          SUNNY     59  53  79 N3        30.17R
6HR MIN TEMP:  52; 6HR MAX TEMP:  59;

Galesburg      SUNNY     50  50 100 CALM      30.17S
6HR MIN TEMP:  44; 6HR MAX TEMP:  51;

Jacksonville   SUNNY     54  52  93 CALM      30.16R
6HR MIN TEMP:  48; 6HR MAX TEMP:  55;

Lacon          MOSUNNY   53  53  99 CALM      30.16R
6HR MIN TEMP:  47; 6HR MAX TEMP:  53;

Lawrenceville  SUNNY     57  55  93 CALM      30.16R
6HR MIN TEMP:  53; 6HR MAX TEMP:  58;

Litchfield     SUNNY     57  54  92 E3        30.16R
6HR MIN TEMP:  50; 6HR MAX TEMP:  57;

$$


CITY           SKY/WX    TMP DP  RH WIND       PRES   REMARKS
Lincoln        SUNNY     53  53 100 CALM      30.17R
6HR MIN TEMP:  47; 6HR MAX TEMP:  57;

Macomb         SUNNY     52  51  97 CALM      30.18S
6HR MIN TEMP:  46; 6HR MAX TEMP:  52;

Mattoon        SUNNY     57  54  89 N3        30.16R
6HR MIN TEMP:  52; 6HR MAX TEMP:  58;

Mt Carmel AP   SUNNY     54  53  96 CALM      30.16S
6HR MIN TEMP:  49; 6HR MAX TEMP:  54;

Olney-Noble AP SUNNY     55  55 100 CALM      30.17R
Paris AP       MOSUNNY   52  51  97 CALM      30.17R
6HR MIN TEMP:  46; 6HR MAX TEMP:  53;

Peoria         MOSUNNY   54  52  93 CALM      30.17R
6HR MIN TEMP:  49; 6HR MAX TEMP:  54;

Pontiac        MOSUNNY   54  51  88 CALM      30.16S
6HR MIN TEMP:  49; 6HR MAX TEMP:  55;

Rantoul        MOSUNNY   56  53  89 CALM      30.16R
6HR MIN TEMP:  49; 6HR MAX TEMP:  56;

Robinson       SUNNY     54  52  94 CALM      30.17R
6HR MIN TEMP:  47; 6HR MAX TEMP:  54;

Springfield    MOSUNNY   57  55  93 CALM      30.17R
6HR MIN TEMP:  50; 6HR MAX TEMP:  58;

Taylorville    MOSUNNY   55  54  94 CALM      30.16S
6HR MIN TEMP:  48; 6HR MAX TEMP:  55;

$$

...REGIONAL REPORTS...


CITY           SKY/WX    TMP DP  RH WIND       PRES   REMARKS
Chicago O`Hare SUNNY     58  47  66 W8        30.12R
Kankakee       NOT AVBL
Moline         SUNNY     54  47  77 CALM      30.16R
Mount Sterling SUNNY     55  52  92 CALM      30.15R
Mount Vernon   SUNNY     55  54  96 NE3       30.17R
Pittsfield     SUNNY     56  55  95 CALM      30.16S
Quincy         SUNNY     57  53  86 S5        30.15R
Rockford       SUNNY     52  48  86 S3        30.14S
$$


CITY           SKY/WX    TMP DP  RH WIND       PRES   REMARKS
Burlington     SUNNY     56  54  93 CALM      30.16R
Cedar Rapids   SUNNY     49  48  97 CALM      30.15R
Des Moines     MOSUNNY   55  47  74 S3        30.15R
Kirksville     SUNNY     57  51  80 E5        30.16S
Ottumwa        SUNNY     53  50  89 S3        30.15S
St Louis       MOSUNNY   63  57  81 W3        30.16S
$$


CITY           SKY/WX    TMP DP  RH WIND       PRES   REMARKS
Terre Haute    SUNNY     56  51  84 CALM      30.16R
Evansville     SUNNY     59  54  83 CALM      30.16R
Indianapolis   SUNNY     56  51  84 W5        30.15R
Lafayette      MOSUNNY   51  51 100 CALM      30.15R
Madison        SUNNY     55  47  74 CALM      30.11R
Milwaukee      SUNNY     59  48  67 W7        30.10R
$$






USA.gov is the U.S. government's official web portal to all federal, state and local government web resources and services.